This is the latest recevied weather packets stored in our database for station/object N7CEE-2. If no packets are shown the sender has not sent any weather packets the latest 10 day(s).
| Time | Temp. | Humidity | Pressure | Rain* | Wind** | Luminosity | Snow |
|---|---|---|---|---|---|---|---|
| 1777592931 | 31.67° C | 15% | 1006.9 hPa | 0 mm | - | 235 W/m² | - |
| 1777592626 | 32.22° C | 15% | 1007.1 hPa | 0 mm | - | 411 W/m² | - |
| 1777592322 | 31.67° C | 15% | 1006.9 hPa | 0 mm | - | 443 W/m² | - |
| 1777592018 | 31.67° C | 15% | 1007.1 hPa | 0 mm | - | 475 W/m² | - |
| 1777591715 | 31.67° C | 16% | 1006.8 hPa | 0 mm | - | 308 W/m² | - |
| 1777591410 | 32.22° C | 16% | 1007.2 hPa | 0 mm | - | 407 W/m² | - |
| 1777591107 | 31.67° C | 16% | 1006.9 hPa | 0 mm | - | 581 W/m² | - |
| 1777590802 | 31.67° C | 16% | 1007.2 hPa | 0 mm | - | 310 W/m² | - |
| 1777590499 | 32.22° C | 15% | 1007.3 hPa | 0 mm | - | 628 W/m² | - |
| 1777590195 | 31.67° C | 15% | 1007.3 hPa | 0 mm | - | 386 W/m² | - |
| 1777589892 | 31.67° C | 16% | 1007.3 hPa | 0 mm | - | 627 W/m² | - |
| 1777589588 | 31.67° C | 15% | 1007.4 hPa | 0 mm | - | 624 W/m² | - |
| 1777589285 | 31.11° C | 16% | 1007.5 hPa | 0 mm | - | 635 W/m² | - |
| 1777588983 | 31.11° C | 16% | 1007.7 hPa | 0 mm | - | 610 W/m² | - |
| 1777588678 | 31.11° C | 15% | 1007.8 hPa | 0 mm | - | 475 W/m² | - |
| 1777588374 | 31.11° C | 15% | 1007.7 hPa | 0 mm | - | 295 W/m² | - |
| 1777588070 | 31.11° C | 15% | 1007.9 hPa | 0 mm | - | 393 W/m² | - |
| 1777587766 | 30.56° C | 15% | 1007.9 hPa | 0 mm | - | 469 W/m² | - |
| 1777587465 | 30.56° C | 16% | 1007.9 hPa | 0 mm | - | 378 W/m² | - |
| 1777587163 | 31.11° C | 16% | 1008.1 hPa | 0 mm | - | 478 W/m² | - |
| 1777586857 | 31.67° C | 15% | 1008.1 hPa | 0 mm | - | 605 W/m² | - |
| 1777586554 | 31.67° C | 16% | 1008.2 hPa | 0 mm | - | 615 W/m² | - |
| 1777586250 | 31.11° C | 16% | 1008.3 hPa | 0 mm | - | 653 W/m² | - |
| 1777585947 | 31.11° C | 16% | 1008.4 hPa | 0 mm | - | 689 W/m² | - |
| 1777585642 | 31.67° C | 16% | 1008.5 hPa | 0 mm | - | 768 W/m² | - |
* Rain latest hour (hover to see other rain measurements)
** Current wind speed in m/s (hover to see current wind gust speed)